Volver al catálogo

STARLINK-5942

ActivoComunicacionesVLEO
NORAD 56014·PAYLOAD·🇺🇸 United States

Lanzado Mar 24, 2023 desde Cape Canaveral Space Force Station

Loading…

Próximos Pases (próximas 24 horas)

TLE

ActualizadoSource: CelesTrak SupGP

Época: Sep 14, 2026, 21:32 UTC

1 56014C 23042AE  26257.89770833  .00056157  00000+0  20337-2 0  2571
2 56014  43.0046  56.6161 0001928 274.2521  71.8404 15.27554728    14

Sigue STARLINK-5942 en tiempo real con AllMySat

Download on the App Store